Location: Fontevrault
(47.1823°N, 0.0493°E)
Time: 18:26:15
(UTC+00:00)

Cosmos 1725 Rocket - Pass Details

Date: 26 October 2021
Orbit: 961 x 991 km, 82.9° (Epoch: 27 November)

Event Time Altitude Azimuth Distance (km) Brightness Sun altitude
Exits shadow 18:35:07 13° 41° (NE) 2,495 5.8 -18.0°
Drops below altitude 10° 18:35:58 10° 35° (NE) 2,715 6.0 -18.1°
Sets 18:39:02 0° 20° (NNE) 3,663 6.8 -18.7°
